Probability
0 0 0 0 0 0 0 0 0 0 1 5 15 29 38 35 25 14 5 6 17 24 23 22 22 18 12 8 5 3 1 0 0 1 0 0 0 0 0 0 0 0 0 0 0 0 0 0 0
0 0 0 0 0 0 0 0 0 0 1 7 21 36 44 42 33 20 10 13 28 35 31 28 28 23 16 10 6 3 1 0 1 1 1 0 0 0 0 0 0 0 0 0 0 0 0 0 0
0 0 0 0 0 0 0 0 0 1 4 14 27 39 44 41 34 23 17 25 41 45 39 38 38 31 22 13 7 3 1 0 1 2 1 0 0 0 0 0 0 0 0 0 0 0 0 0 0
0 0 0 0 0 0 0 0 0 3 12 25 37 44 43 36 29 27 28 35 48 49 43 43 43 37 28 19 12 7 3 2 1 1 0 0 0 0 0 0 0 0 0 0 0 0 0 0 0
0 0 0 0 0 0 0 0 2 9 22 36 46 52 47 36 34 36 36 40 48 50 46 44 43 39 32 25 18 12 9 5 1 0 0 0 0 0 0 0 0 0 0 0 0 0 0 0 0
0 0 0 0 0 0 0 2 7 16 26 35 44 49 45 36 37 40 39 40 45 49 47 44 41 38 35 30 24 17 13 9 4 1 0 0 0 0 0 0 0 0 0 0 0 0 0 0 0
0 0 0 0 0 0 1 6 14 21 27 29 33 39 39 36 35 36 37 40 44 45 44 42 38 36 36 33 27 21 16 12 7 3 1 1 0 0 0 0 0 0 0 0 0 0 0 0 0
0 0 0 0 0 0 3 10 18 24 27 28 30 35 38 37 37 37 39 43 43 39 36 33 31 31 33 33 29 23 18 13 9 5 3 1 0 0 0 0 0 0 0 0 0 0 0 0 0
0 0 0 0 0 1 6 13 20 26 32 34 36 40 42 40 40 40 39 41 39 32 26 21 21 25 28 29 27 22 16 12 9 6 3 2 1 0 0 1 1 1 1 0 0 1 1 1 0
0 0 0 0 0 3 7 13 19 26 33 38 40 42 42 40 40 39 36 35 32 25 18 14 15 19 22 23 22 19 15 12 10 7 4 3 1 0 1 2 2 2 2 1 1 2 3 2 1
0 0 0 0 1 3 7 11 17 23 27 32 35 37 37 36 36 34 30 30 27 22 16 14 14 15 15 17 18 16 14 14 13 10 7 5 2 1 1 2 3 3 3 3 3 4 5 4 3
0 0 0 1 2 3 6 11 17 21 23 25 26 28 29 28 27 25 23 24 23 21 17 15 14 13 11 12 14 13 11 12 12 11 9 7 4 2 1 2 3 5 6 6 5 5 5 5 5
0 0 0 1 3 4 6 10 15 19 22 23 22 23 23 22 21 18 17 17 18 19 16 14 12 10 8 9 10 9 7 7 7 8 10 9 7 4 2 2 3 5 7 7 6 4 4 4 4
0 0 0 1 3 5 8 10 11 15 19 21 20 19 21 21 18 14 14 15 15 14 12 11 9 7 5 6 7 6 5 6 6 7 10 12 10 7 6 5 5 5 5 6 5 4 3 3 2
0 0 0 1 1 3 7 10 9 11 16 17 15 14 16 16 12 9 10 11 12 10 8 7 6 4 4 5 6 6 7 9 11 10 12 14 14 11 12 11 8 6 6 6 4 3 2 1 1
0 0 0 0 0 1 4 7 8 11 15 14 10 8 8 7 5 5 5 6 7 6 5 3 3 3 3 4 5 7 9 12 15 16 17 18 18 17 18 16 12 9 9 9 7 3 1 1 0
0 0 0 0 0 0 2 5 8 13 16 14 8 4 3 2 1 1 2 2 3 4 2 1 1 2 3 4 6 9 12 15 18 20 23 24 23 23 23 20 17 17 16 15 12 7 3 2 1
0 0 0 0 0 1 4 7 10 14 18 15 8 5 3 1 0 0 0 0 1 1 1 0 0 1 3 5 8 12 17 18 19 21 23 24 25 26 26 25 24 24 22 18 14 10 6 4 3
0 0 0 0 1 3 7 10 11 12 15 13 9 7 6 3 1 0 0 0 0 1 1 1 1 1 3 5 8 14 17 16 14 15 17 18 21 24 26 26 25 24 22 18 14 10 7 6 4
0 0 0 0 1 5 9 10 9 9 10 11 10 9 8 5 2 1 1 1 2 2 2 2 2 2 2 3 6 11 13 11 9 9 10 11 14 17 20 22 22 21 20 18 14 11 8 6 5
0 0 0 0 2 5 7 8 8 8 8 8 9 8 7 5 4 4 3 3 4 4 4 4 4 3 3 3 4 8 10 9 7 6 6 6 8 10 12 15 17 19 18 16 14 13 10 7 6
0 0 0 0 1 2 4 5 7 8 6 4 5 6 6 5 5 5 4 3 4 5 6 6 5 5 5 5 5 7 9 8 6 6 5 5 4 6 8 10 12 16 16 13 12 12 10 8 8
0 0 0 0 0 0 1 2 5 6 4 3 5 6 6 5 5 4 3 3 4 5 6 6 6 6 6 6 5 6 6 6 6 6 7 6 6 6 8 8 10 12 12 10 10 11 10 8 8
0 0 0 0 0 0 0 1 2 3 3 4 6 6 5 4 3 2 1 1 2 3 3 3 3 3 3 3 3 2 3 3 4 5 6 7 7 6 6 6 7 7 7 8 10 12 11 9 7
0 0 0 0 0 0 0 0 1 2 3 6 7 6 5 4 2 1 1 0 1 1 1 1 1 1 1 1 1 0 1 1 1 2 3 3 4 3 3 3 2 2 4 6 8 10 10 9 7
0 0 0 0 0 0 0 0 0 2 5 7 8 7 6 5 2 1 1 0 0 0 0 0 0 0 0 0 0 0 0 0 0 1 1 1 1 1 1 1 0 0 2 3 4 5 7 7 7
0 0 0 0 0 0 0 0 0 2 5 7 7 7 6 4 2 1 0 0 0 0 0 0 0 0 0 0 0 0 0 0 0 0 0 0 0 0 0 0 0 0 1 1 1 2 3 4 5
0 0 0 0 0 0 0 0 0 2 4 6 6 6 5 3 1 1 0 0 0 0 0 0 0 0 0 0 0 0 0 0 0 0 0 0 0 0 0 0 0 0 0 0 0 0 1 1 2
0 0 0 0 0 0 0 0 0 1 2 3 5 5 3 1 2 2 1 0 0 0 0 0 0 0 0 0 0 0 0 0 0 0 0 0 0 0 0 0 0 0 0 0 0 0 0 0 0
0 0 0 0 0 0 0 0 0 1 2 3 3 2 1 1 2 2 1 0 0 0 0 0 0 0 0 0 0 0 0 0 0 0 0 0 0 0 0 0 0 0 0 0 0 0 0 0 0
Wind_Speed
4 3 1 4 6 4 5 7 4 7 4 2 7 11 11 7 5 5 4 13 17 15 12 15 17 17 18 17 17 17 17 17 17 17 17 17 16 16 16 15 14 14 13 13 13 12 13 13 13
2 1 3 5 5 1 7 6 5 6 3 4 8 10 10 8 7 9 7 13 18 16 12 13 17 17 17 17 17 17 17 17 17 16 16 16 15 14 14 14 13 13 12 12 12 11 11 11 11
2 1 4 4 3 5 7 5 3 2 3 3 6 7 7 6 6 5 8 16 15 13 11 13 18 16 17 17 17 16 16 16 16 15 15 15 14 13 12 13 12 12 11 11 11 10 10 9 9
2 4 4 3 6 8 8 10 8 1 3 5 8 8 6 4 4 8 14 15 14 11 10 13 17 16 16 17 17 16 16 15 15 15 14 13 13 12 11 11 12 11 10 10 10 9 8 8 7
4 4 3 2 7 8 8 10 7 1 2 5 10 9 7 7 12 15 13 14 13 10 8 11 15 15 16 16 16 16 15 14 13 13 13 12 11 10 10 10 11 10 10 9 9 8 7 6 6
4 5 3 3 7 8 8 6 3 7 5 6 9 9 5 5 11 11 11 12 11 9 7 8 14 16 15 16 15 14 14 14 13 12 12 12 11 10 10 10 10 10 9 9 9 8 7 5 4
4 3 3 4 6 8 8 2 4 8 6 4 5 8 4 6 8 10 11 11 10 8 7 5 7 10 14 14 14 13 13 13 12 12 12 11 11 10 10 9 9 9 9 9 8 8 7 5 4
5 3 2 3 5 7 5 3 4 8 6 4 5 9 7 4 9 11 10 10 11 7 6 5 5 5 6 8 13 14 13 12 12 12 12 12 11 10 10 8 8 9 9 9 8 7 7 5 4
4 3 3 4 3 5 4 4 4 7 10 10 10 10 10 11 15 14 10 9 8 7 5 5 5 4 4 5 9 10 12 11 11 10 12 10 5 5 5 7 9 9 9 8 8 7 7 6 5
5 4 8 6 3 3 3 2 3 7 11 11 13 14 15 15 16 14 11 9 6 5 4 4 5 5 4 5 5 4 5 5 5 4 6 4 4 3 5 6 9 9 9 8 8 8 7 5 2
5 7 8 7 5 2 2 4 4 9 8 8 13 14 14 16 15 14 11 8 5 3 3 2 3 4 4 3 3 2 2 3 4 5 5 4 4 3 3 2 4 5 6 4 4 5 3 2 2
4 8 7 5 2 3 4 4 6 8 9 12 15 15 15 16 14 13 11 8 5 4 3 2 2 3 2 3 3 3 3 3 3 4 6 4 3 3 3 3 4 3 2 3 3 2 3 3 3
6 10 8 2 3 5 9 8 10 9 12 14 16 17 15 15 14 12 11 7 5 3 3 2 1 1 2 2 2 3 3 3 4 4 5 5 4 4 4 3 3 3 3 3 3 3 3 3 3
7 7 4 2 4 4 11 6 8 6 11 14 14 14 13 13 12 10 8 6 5 4 4 2 1 1 1 1 1 2 2 3 3 3 4 5 4 4 4 4 3 3 3 3 3 4 4 3 2
5 3 3 1 4 4 10 8 5 8 11 13 12 12 12 11 10 9 7 5 5 3 2 3 2 0 0 1 1 1 2 2 2 3 3 4 4 4 4 4 4 4 4 3 3 3 3 2 2
3 3 1 4 3 3 9 5 4 8 12 12 11 11 11 8 8 7 7 5 3 3 4 4 2 1 1 0 1 1 1 2 2 2 2 3 3 3 3 3 3 3 3 3 3 3 3 2 2
5 1 2 5 1 3 8 7 6 7 11 12 11 11 10 8 6 5 6 5 5 5 5 5 4 3 2 1 0 0 1 1 1 2 2 2 2 3 3 3 3 3 3 2 3 3 3 3 3
3 2 2 4 3 5 7 7 9 8 11 12 12 12 11 9 6 6 6 6 6 5 5 5 5 5 4 2 1 1 2 1 1 1 1 1 1 2 2 2 2 2 2 2 2 2 2 3 3
3 3 4 6 3 5 8 9 9 8 9 11 11 11 10 9 7 6 6 6 6 5 5 5 5 4 4 2 1 1 1 1 1 1 1 1 1 1 2 1 1 2 2 2 3 2 3 2 3
4 3 4 5 0 6 9 7 6 6 8 11 13 12 12 10 8 6 6 6 6 6 5 5 4 5 4 3 2 1 0 1 2 2 2 3 2 2 1 1 0 1 2 2 3 3 2 3 3
4 4 3 1 4 8 9 5 4 4 5 8 9 10 10 11 10 7 7 6 7 7 6 6 6 6 6 6 3 3 3 3 3 3 3 3 3 3 3 2 1 0 1 1 2 3 4 4 3
3 4 3 2 5 2 4 3 1 4 4 7 8 9 9 10 9 8 7 7 6 6 6 6 6 6 6 6 5 5 4 3 2 2 2 3 4 4 3 3 2 1 0 0 1 2 3 4 4
4 2 3 4 5 4 4 5 2 3 5 8 9 10 9 10 10 9 8 7 7 6 6 5 6 6 6 7 6 6 5 3 2 3 4 4 4 4 4 3 2 2 1 2 2 1 2 3 3
3 5 7 6 6 4 1 3 3 3 6 10 10 12 11 11 11 9 8 7 7 6 6 5 6 6 6 7 6 6 6 5 5 5 5 4 3 4 5 4 3 2 2 2 2 1 1 2 3
6 7 5 6 5 1 2 2 3 5 4 9 13 12 11 10 10 9 8 7 6 6 6 5 6 6 6 7 7 6 6 6 5 4 4 4 3 3 4 4 3 2 2 2 2 2 2 2 2
1 7 7 3 2 2 3 1 4 2 2 8 11 13 11 9 9 9 8 7 6 6 5 5 5 5 5 6 5 5 5 4 4 4 3 3 2 3 4 4 4 3 3 3 2 1 1 1 1
2 1 5 7 3 2 2 2 3 2 7 9 11 11 11 10 9 10 8 7 6 5 4 4 5 5 5 5 5 5 5 5 4 4 3 3 3 3 4 4 4 4 3 3 2 2 2 1 1
4 4 6 5 4 1 2 3 4 3 5 8 9 10 9 10 10 9 8 7 6 5 4 4 4 4 4 4 4 4 4 4 4 4 4 4 4 4 5 5 5 4 4 4 3 3 3 3 2
4 4 5 3 4 5 3 5 5 7 8 9 9 9 10 11 10 9 8 7 6 5 4 4 4 4 4 4 4 4 4 4 4 4 4 4 5 5 6 6 5 5 5 5 4 4 4 4 4
4 3 4 3 2 3 3 5 2 6 8 9 9 8 8 9 9 10 8 7 6 5 4 4 3 3 3 3 4 4 4 4 5 5 5 5 5 5 6 6 6 6 6 6 5 5 5 5 4
Wind_Direction
295 291 34 51 52 43 258 252 256 301 331 16 85 98 101 88 121 143 143 142 135 141 147 146 143 139 135 132 128 125 123 121 118 116 114 112 112 114 115 117 117 117 117 116 115 115 114 114 116
303 284 56 61 87 295 268 253 257 255 194 122 76 82 78 66 75 104 117 142 139 141 142 145 144 142 138 135 132 130 128 125 122 120 118 117 116 115 117 118 119 119 119 118 117 116 116 116 117
286 42 84 80 145 201 248 263 276 270 174 116 84 64 74 91 98 114 135 139 134 136 136 145 144 143 141 139 136 134 132 131 129 127 125 123 122 121 120 122 123 123 122 122 121 120 120 120 119
55 48 53 82 248 239 240 275 295 337 52 58 91 71 62 49 102 123 132 134 130 131 133 142 144 144 143 142 141 139 138 137 136 134 132 131 130 129 128 129 129 128 127 127 127 127 126 125 123
65 75 55 306 261 261 256 262 268 144 86 78 89 91 60 27 86 108 122 124 123 125 128 139 142 143 144 145 144 144 144 143 143 142 141 140 138 137 137 136 137 136 136 135 135 135 134 134 130
52 69 88 264 270 281 284 267 171 109 105 84 87 93 62 55 89 106 111 111 111 115 115 130 141 145 147 148 148 148 148 148 149 150 149 147 147 146 145 145 145 145 144 144 144 144 146 147 145
114 104 203 247 282 293 289 306 103 119 98 75 106 101 90 57 78 97 103 107 100 104 107 114 136 144 148 149 149 150 152 153 154 155 155 155 155 155 154 154 154 154 153 154 154 157 160 164 166
147 94 297 283 284 286 302 19 81 104 93 73 79 110 117 109 90 86 88 95 103 106 110 111 113 123 135 144 150 152 154 155 158 160 162 162 162 163 165 163 164 164 164 164 165 169 174 179 187
119 80 264 255 266 281 325 49 51 68 87 68 60 86 109 109 91 83 78 76 91 103 101 102 111 111 120 139 152 152 156 159 161 164 167 163 159 163 169 174 174 174 174 175 179 182 187 194 210
121 169 235 224 238 264 328 61 94 81 76 80 81 83 92 96 92 88 83 79 81 97 102 109 127 132 137 151 141 148 158 159 159 163 164 157 158 172 180 188 186 185 185 188 191 195 198 200 217
177 206 239 260 249 190 82 42 56 106 81 102 111 108 98 95 90 88 85 83 69 71 77 85 131 137 148 144 148 154 154 157 165 169 166 164 166 175 186 184 194 194 194 194 201 201 201 199 206
243 257 252 260 238 130 109 104 70 83 113 115 112 109 99 95 92 93 90 84 77 71 58 59 97 112 133 146 158 167 163 170 177 182 178 174 177 181 183 189 187 187 189 191 193 198 206 215 226
244 259 263 208 95 106 95 86 92 90 106 108 107 103 104 102 97 98 103 105 102 101 79 39 52 116 130 147 179 172 174 177 181 182 185 182 181 183 185 186 185 190 193 195 194 203 210 214 226
248 253 247 163 120 117 103 83 87 113 117 110 109 107 109 106 107 99 104 119 134 147 135 123 360 341 117 151 188 192 172 178 182 187 193 190 188 186 182 183 186 194 203 201 197 203 209 213 205
253 268 317 227 134 148 100 58 93 140 123 111 110 115 113 112 115 120 132 127 131 140 120 108 119 327 234 177 206 190 181 170 174 190 199 197 195 188 188 186 190 200 207 205 198 204 198 197 183
1 52 335 292 139 161 104 119 151 151 129 120 119 119 119 118 124 129 129 122 111 84 63 56 63 351 331 12 212 173 175 164 170 181 190 196 201 191 185 187 196 198 186 191 194 186 183 181 173
18 45 273 295 235 126 110 143 172 160 136 130 129 125 125 120 117 118 117 108 93 78 59 40 27 10 350 347 7 124 145 146 160 155 166 189 193 183 175 183 195 189 177 184 194 173 171 173 174
275 269 273 267 277 114 115 141 159 163 146 140 138 135 134 134 134 127 106 89 75 67 56 36 21 9 353 345 29 67 93 104 98 102 134 161 187 174 162 176 186 182 179 189 184 175 176 171 162
230 254 268 267 242 119 130 139 157 162 150 141 138 137 133 130 123 108 94 83 73 61 52 41 32 10 10 359 8 28 61 70 67 70 72 75 87 122 124 147 175 180 192 209 194 173 174 171 148
242 263 281 294 243 117 120 125 145 150 153 144 143 143 138 130 121 108 94 82 74 67 60 50 36 21 14 0 335 318 89 73 73 54 43 39 46 50 87 85 130 195 194 200 198 181 178 185 177
255 215 231 235 58 85 102 66 87 113 115 125 132 136 137 137 130 117 98 81 73 65 57 53 35 25 16 8 8 21 40 43 37 32 23 17 37 47 46 38 44 34 175 198 204 190 189 198 202
253 225 191 150 92 89 118 127 200 163 144 140 140 138 138 133 125 117 106 91 80 70 59 51 37 32 23 20 33 46 55 55 31 24 29 17 29 36 33 22 12 15 2 278 250 204 201 191 198
212 191 98 113 118 83 38 114 228 172 167 169 159 145 138 133 127 120 112 102 91 79 67 51 42 36 32 35 38 51 50 44 33 33 38 27 19 20 17 10 358 357 345 320 301 272 229 204 199
123 60 47 51 72 76 314 124 205 222 205 175 162 149 143 135 125 117 108 98 86 75 67 56 51 41 35 43 43 50 55 50 46 35 32 23 15 12 12 11 8 357 340 326 308 291 267 230 212
61 77 38 18 28 264 278 118 229 254 235 173 158 148 142 135 128 121 111 100 90 78 68 60 58 47 38 45 44 45 53 54 50 39 34 26 11 2 359 4 359 353 344 341 339 330 302 255 217
69 123 141 163 202 275 356 320 273 294 117 127 136 136 134 131 127 121 117 110 102 91 77 65 61 52 44 48 46 45 48 51 45 38 35 25 5 348 348 356 354 353 357 0 358 354 331 334 246
95 82 149 124 108 78 318 296 300 73 102 118 126 127 132 131 126 121 116 108 103 95 85 75 68 57 45 44 48 45 44 48 43 34 31 20 2 357 1 1 0 2 6 6 9 20 12 15 11
123 135 81 98 132 157 283 261 234 191 147 137 136 131 131 129 126 120 116 112 104 94 87 75 72 67 53 45 47 51 40 41 40 35 29 19 9 6 9 10 12 15 18 20 30 28 28 36 24
37 56 81 100 142 146 209 260 225 185 161 151 144 140 141 139 131 124 120 117 109 100 92 84 74 67 58 51 49 47 36 33 36 32 23 20 19 19 23 21 23 25 26 26 35 36 38 43 36
119 126 128 140 216 165 170 259 296 151 135 135 136 136 136 132 127 125 123 117 111 108 100 88 77 73 68 60 54 46 35 34 33 26 19 22 22 23 29 29 30 32 31 30 35 39 40 43 42